AZU2458 SBUL-SBSG

Flight info

Callsign AZU2458
Flight time 2h 35m
Altitude 35000
Route AZOIC DCT ILRUM DCT SIPIR DCT BOKID DCT TOSAD
Aircraft A320/M-SDE3FGHIRWY/LB1

Departure

Time 2026-04-25 16:33
Airport Ten. Cel. Aviador César Bombonato Airport (SBUL)

Arrival

Time 2026-04-25 19:09
Airport Rio Grande do Norte/São Gonçalo do Amarante–Governador Aluízio Alves International Airport (SBSG)
Time Latitude Longitude Altitude Speed Heading
2026-04-25 16:10 -18.88975 -48.23041 1925 ft 0 kts 292°
2026-04-25 16:25 -18.88983 -48.23016 2272 ft 3 kts 265°
2026-04-25 16:25 -18.88978 -48.22998 1256 ft 3 kts 229°
2026-04-25 16:26 -18.88967 -48.22984 2810 ft 3 kts 216°
2026-04-25 16:26 -18.88952 -48.22975 2362 ft 1 kts 199°
2026-04-25 16:31 -18.88953 -48.22976 2369 ft 1 kts 199°
2026-04-25 16:31 -18.88986 -48.22988 3084 ft 9 kts 199°
2026-04-25 16:31 -18.89039 -48.22964 3103 ft 9 kts 120°
2026-04-25 16:32 -18.89095 -48.22909 2598 ft 14 kts 165°
2026-04-25 16:32 -18.89175 -48.22920 3101 ft 10 kts 174°
2026-04-25 16:32 -18.89213 -48.22949 3101 ft 7 kts 283°
2026-04-25 16:32 -18.89191 -48.22953 3095 ft 0 kts 17°
2026-04-25 16:33 -18.89163 -48.22943 3092 ft 27 kts 20°
2026-04-25 16:33 -18.88733 -48.22755 2729 ft 103 kts 22°
2026-04-25 16:33 -18.87886 -48.22386 3135 ft 159 kts 22°
2026-04-25 16:33 -18.86866 -48.21917 3821 ft 160 kts 23°
2026-04-25 16:34 -18.85820 -48.21442 4201 ft 173 kts 23°
2026-04-25 16:34 -18.84640 -48.20917 4400 ft 195 kts 22°
2026-04-25 16:34 -18.83373 -48.20354 4726 ft 204 kts 23°
2026-04-25 16:34 -18.82065 -48.19575 4979 ft 229 kts 35°
2026-04-25 16:35 -18.80746 -48.18481 5314 ft 253 kts 41°
2026-04-25 16:35 -18.79387 -48.17178 5779 ft 271 kts 43°
2026-04-25 16:35 -18.78009 -48.15809 6623 ft 266 kts 43°
2026-04-25 16:35 -18.76691 -48.14508 7384 ft 267 kts 43°
2026-04-25 16:36 -18.75277 -48.13136 7790 ft 283 kts 43°
2026-04-25 16:36 -18.74783 -48.12663 7991 ft 285 kts 42°
2026-04-25 16:36 -18.72289 -48.10313 9056 ft 293 kts 42°
2026-04-25 16:36 -18.70749 -48.08879 9714 ft 297 kts 42°
2026-04-25 16:37 -18.69188 -48.07428 10291 ft 303 kts 41°
2026-04-25 16:37 -18.67548 -48.05908 10471 ft 325 kts 41°
2026-04-25 16:37 -18.65792 -48.04283 10602 ft 346 kts 41°
2026-04-25 16:37 -18.63935 -48.02567 10799 ft 362 kts 41°
2026-04-25 16:38 -18.62047 -48.00822 11248 ft 368 kts 41°
2026-04-25 16:38 -18.60116 -47.99032 11819 ft 372 kts 41°
2026-04-25 16:38 -18.58199 -47.97262 12389 ft 353 kts 41°
2026-04-25 16:38 -18.56344 -47.95562 12966 ft 355 kts 41°
2026-04-25 16:39 -18.54471 -47.93847 13545 ft 358 kts 41°
2026-04-25 16:39 -18.52581 -47.92115 14121 ft 361 kts 41°
2026-04-25 16:39 -18.50684 -47.90375 14699 ft 363 kts 41°
2026-04-25 16:39 -18.48780 -47.88629 15276 ft 364 kts 41°
2026-04-25 16:40 -18.46873 -47.86866 15853 ft 365 kts 41°
2026-04-25 16:40 -18.44970 -47.85080 16278 ft 371 kts 41°
2026-04-25 16:40 -18.43009 -47.83237 16405 ft 385 kts 41°
2026-04-25 16:40 -18.41002 -47.81360 16616 ft 395 kts 41°
2026-04-25 16:41 -18.38932 -47.79435 17007 ft 399 kts 41°
2026-04-25 16:41 -18.37522 -47.78128 17298 ft 401 kts 41°
2026-04-25 16:41 -18.32604 -47.73592 18300 ft 407 kts 41°
2026-04-25 16:42 -18.30473 -47.71608 18704 ft 410 kts 44°
2026-04-25 16:42 -18.28501 -47.69430 19093 ft 413 kts 47°
2026-04-25 16:42 -18.26538 -47.67211 19488 ft 415 kts 46°
2026-04-25 16:42 -18.24564 -47.64982 19890 ft 417 kts 46°
2026-04-25 16:43 -18.22578 -47.62741 20278 ft 420 kts 46°
2026-04-25 16:43 -18.20607 -47.60525 20644 ft 422 kts 46°
2026-04-25 16:43 -18.18596 -47.58266 21006 ft 424 kts 46°
2026-04-25 16:43 -18.16573 -47.55994 21359 ft 427 kts 46°
2026-04-25 16:44 -18.14539 -47.53709 21683 ft 429 kts 46°
2026-04-25 16:44 -18.12498 -47.51413 22016 ft 431 kts 46°
2026-04-25 16:44 -18.10443 -47.49097 22348 ft 434 kts 46°
2026-04-25 16:44 -18.08382 -47.46778 22666 ft 436 kts 46°
2026-04-25 16:45 -18.06304 -47.44441 22970 ft 438 kts 46°
2026-04-25 16:45 -18.04217 -47.42096 23273 ft 440 kts 46°
2026-04-25 16:45 -18.02149 -47.39774 23588 ft 442 kts 46°
2026-04-25 16:45 -18.00046 -47.37411 23882 ft 444 kts 46°
2026-04-25 16:46 -17.97933 -47.35037 24173 ft 446 kts 46°
2026-04-25 16:46 -17.95806 -47.32651 24466 ft 448 kts 46°
2026-04-25 16:46 -17.93671 -47.30262 24741 ft 450 kts 46°
2026-04-25 16:46 -17.92251 -47.28677 24910 ft 451 kts 46°
2026-04-25 16:47 -17.89365 -47.25454 25243 ft 454 kts 46°
2026-04-25 16:47 -17.87198 -47.23031 25479 ft 456 kts 46°
2026-04-25 16:47 -17.85054 -47.20635 25711 ft 458 kts 46°
2026-04-25 16:47 -17.82873 -47.18198 25928 ft 459 kts 46°
2026-04-25 16:48 -17.80681 -47.15749 26154 ft 461 kts 46°
2026-04-25 16:48 -17.78482 -47.13291 26392 ft 462 kts 46°
2026-04-25 16:48 -17.76277 -47.10828 26640 ft 464 kts 46°
2026-04-25 16:48 -17.74062 -47.08357 26865 ft 466 kts 46°
2026-04-25 16:49 -17.71838 -47.05869 27066 ft 468 kts 46°
2026-04-25 16:49 -17.69605 -47.03369 27277 ft 470 kts 47°
2026-04-25 16:49 -17.67366 -47.00867 27499 ft 472 kts 47°
2026-04-25 16:49 -17.65147 -46.98386 27696 ft 473 kts 47°
2026-04-25 16:50 -17.62889 -46.95867 27916 ft 474 kts 47°
2026-04-25 16:50 -17.60628 -46.93348 28126 ft 475 kts 47°
2026-04-25 16:50 -17.58361 -46.90824 28349 ft 476 kts 47°
2026-04-25 16:50 -17.56088 -46.88294 28575 ft 477 kts 47°
2026-04-25 16:51 -17.53811 -46.85767 28776 ft 478 kts 47°
2026-04-25 16:51 -17.51529 -46.83231 28980 ft 479 kts 47°
2026-04-25 16:51 -17.49272 -46.80722 29144 ft 480 kts 47°
2026-04-25 16:51 -17.47725 -46.78998 29266 ft 481 kts 47°
2026-04-25 16:52 -17.44686 -46.75607 29533 ft 482 kts 47°
2026-04-25 16:52 -17.42388 -46.73047 29781 ft 482 kts 47°
2026-04-25 16:52 -17.40089 -46.70496 30033 ft 482 kts 47°
2026-04-25 16:52 -17.37792 -46.67953 30268 ft 481 kts 47°
2026-04-25 16:53 -17.33201 -46.62859 30753 ft 481 kts 47°
2026-04-25 16:53 -17.30904 -46.60313 30991 ft 480 kts 47°
2026-04-25 16:53 -17.28643 -46.57808 31233 ft 480 kts 47°
2026-04-25 16:54 -17.26354 -46.55271 31488 ft 479 kts 47°
2026-04-25 16:54 -17.24066 -46.52736 31740 ft 479 kts 47°
2026-04-25 16:54 -17.21779 -46.50207 31978 ft 478 kts 47°
2026-04-25 16:54 -17.19495 -46.47682 32226 ft 478 kts 47°
2026-04-25 16:55 -17.17215 -46.45159 32477 ft 477 kts 47°
2026-04-25 16:55 -17.14935 -46.42636 32717 ft 477 kts 47°
2026-04-25 16:55 -17.12688 -46.40153 32955 ft 476 kts 47°
2026-04-25 16:55 -17.10416 -46.37643 33189 ft 476 kts 47°
2026-04-25 16:56 -17.08140 -46.35128 33427 ft 475 kts 47°
2026-04-25 16:56 -17.05871 -46.32622 33684 ft 475 kts 47°
2026-04-25 16:56 -17.03601 -46.30119 33920 ft 474 kts 47°
2026-04-25 16:56 -17.01332 -46.27619 34149 ft 474 kts 47°
2026-04-25 16:57 -16.99067 -46.25122 34377 ft 473 kts 47°
2026-04-25 16:57 -16.97572 -46.23473 34531 ft 473 kts 47°
2026-04-25 16:57 -16.94551 -46.20141 34848 ft 471 kts 47°
2026-04-25 16:57 -16.92330 -46.17693 35055 ft 470 kts 47°
2026-04-25 16:58 -16.90082 -46.15216 35132 ft 471 kts 47°
2026-04-25 16:58 -16.85580 -46.10252 35138 ft 471 kts 47°
2026-04-25 16:59 -16.81067 -46.05287 35138 ft 472 kts 47°
2026-04-25 16:59 -16.76548 -46.00329 35139 ft 471 kts 47°
2026-04-25 17:00 -16.72060 -45.95409 35140 ft 471 kts 47°
2026-04-25 17:00 -16.67546 -45.90455 35139 ft 471 kts 47°
2026-04-25 17:01 -16.63026 -45.85494 35146 ft 472 kts 47°
2026-04-25 17:01 -16.58504 -45.80530 35150 ft 472 kts 47°
2026-04-25 17:02 -16.54008 -45.75598 35154 ft 473 kts 47°
2026-04-25 17:02 -16.49475 -45.70636 35156 ft 473 kts 47°
2026-04-25 17:03 -16.44933 -45.65688 35158 ft 472 kts 47°
2026-04-25 17:03 -16.40391 -45.60738 35160 ft 472 kts 47°
2026-04-25 17:04 -16.35894 -45.55822 35160 ft 472 kts 47°
2026-04-25 17:04 -16.31367 -45.50883 35158 ft 471 kts 47°
2026-04-25 17:05 -16.26845 -45.45942 35158 ft 471 kts 47°
2026-04-25 17:05 -16.20058 -45.38551 35154 ft 471 kts 47°
2026-04-25 17:06 -16.15563 -45.33664 35151 ft 471 kts 47°
2026-04-25 17:06 -16.11046 -45.28744 35149 ft 471 kts 47°
2026-04-25 17:07 -16.06522 -45.23821 35148 ft 470 kts 47°
2026-04-25 17:07 -16.02002 -45.18909 35141 ft 470 kts 47°
2026-04-25 17:08 -15.97509 -45.14036 35111 ft 470 kts 47°
2026-04-25 17:08 -15.93002 -45.09155 35101 ft 467 kts 47°
2026-04-25 17:09 -15.88503 -45.04278 35100 ft 467 kts 47°
2026-04-25 17:09 -15.84016 -44.99408 35095 ft 466 kts 47°
2026-04-25 17:10 -15.79528 -44.94550 35081 ft 466 kts 47°
2026-04-25 17:10 -15.75067 -44.89727 35096 ft 466 kts 47°
2026-04-25 17:11 -15.70564 -44.84870 35095 ft 467 kts 47°
2026-04-25 17:11 -15.66067 -44.80015 35096 ft 467 kts 47°
2026-04-25 17:12 -15.61567 -44.75156 35095 ft 467 kts 47°
2026-04-25 17:12 -15.57098 -44.70326 35097 ft 467 kts 47°
2026-04-25 17:13 -15.53329 -44.66256 35080 ft 467 kts 47°
2026-04-25 17:13 -15.48097 -44.60625 35090 ft 467 kts 47°
2026-04-25 17:14 -15.43584 -44.55777 35083 ft 467 kts 47°
2026-04-25 17:14 -15.39103 -44.50957 35094 ft 467 kts 47°
2026-04-25 17:15 -15.34587 -44.46109 35087 ft 468 kts 47°
2026-04-25 17:15 -15.30074 -44.41257 35095 ft 468 kts 47°
2026-04-25 17:16 -15.25556 -44.36406 35086 ft 467 kts 47°
2026-04-25 17:16 -15.21041 -44.31626 35081 ft 468 kts 45°
2026-04-25 17:17 -15.16222 -44.27098 35075 ft 468 kts 42°
2026-04-25 17:17 -15.11255 -44.22728 35081 ft 468 kts 41°
2026-04-25 17:18 -15.06320 -44.18332 35087 ft 468 kts 43°
2026-04-25 17:18 -15.01443 -44.13870 35102 ft 467 kts 43°
2026-04-25 17:19 -14.96621 -44.09443 35106 ft 466 kts 43°
2026-04-25 17:19 -14.91765 -44.05003 35104 ft 465 kts 43°
2026-04-25 17:20 -14.86909 -44.00588 35100 ft 465 kts 43°
2026-04-25 17:20 -14.82063 -43.96172 35099 ft 464 kts 43°
2026-04-25 17:21 -14.77253 -43.91787 35098 ft 464 kts 43°
2026-04-25 17:21 -14.72405 -43.87381 35096 ft 464 kts 43°
2026-04-25 17:22 -14.68374 -43.83722 35097 ft 464 kts 43°
2026-04-25 17:22 -14.62711 -43.78575 35086 ft 464 kts 43°
2026-04-25 17:23 -14.57899 -43.74207 35089 ft 463 kts 43°
2026-04-25 17:23 -14.53053 -43.69817 35083 ft 464 kts 43°
2026-04-25 17:24 -14.48210 -43.65428 35077 ft 464 kts 43°
2026-04-25 17:24 -14.43359 -43.61029 35074 ft 464 kts 43°
2026-04-25 17:25 -14.38504 -43.56626 35079 ft 465 kts 43°
2026-04-25 17:25 -14.33679 -43.52259 35096 ft 464 kts 43°
2026-04-25 17:26 -14.28829 -43.47863 35095 ft 464 kts 43°
2026-04-25 17:26 -14.23975 -43.43475 35096 ft 464 kts 43°
2026-04-25 17:27 -14.19120 -43.39094 35088 ft 464 kts 43°
2026-04-25 17:27 -14.15906 -43.36194 35095 ft 464 kts 43°
2026-04-25 17:28 -14.09441 -43.30363 35086 ft 464 kts 42°
2026-04-25 17:28 -14.04586 -43.25984 35093 ft 464 kts 42°
2026-04-25 17:29 -13.99728 -43.21603 35096 ft 464 kts 42°
2026-04-25 17:29 -13.94902 -43.17258 35096 ft 464 kts 42°
2026-04-25 17:30 -13.90039 -43.12887 35096 ft 464 kts 42°
2026-04-25 17:30 -13.85181 -43.08508 35095 ft 464 kts 42°
2026-04-25 17:31 -13.80322 -43.04133 35095 ft 464 kts 42°
2026-04-25 17:31 -13.75486 -42.99785 35096 ft 465 kts 42°
2026-04-25 17:32 -13.70615 -42.95412 35095 ft 465 kts 42°
2026-04-25 17:32 -13.65735 -42.91046 35097 ft 465 kts 42°
2026-04-25 17:33 -13.60857 -42.86665 35095 ft 466 kts 42°
2026-04-25 17:33 -13.55982 -42.82275 35083 ft 466 kts 42°
2026-04-25 17:34 -13.51121 -42.77922 35075 ft 467 kts 42°
2026-04-25 17:34 -13.46222 -42.73539 35088 ft 467 kts 42°
2026-04-25 17:35 -13.41322 -42.69156 35097 ft 467 kts 42°
2026-04-25 17:35 -13.36430 -42.64783 35098 ft 467 kts 42°
2026-04-25 17:36 -13.31566 -42.60432 35086 ft 467 kts 42°
2026-04-25 17:36 -13.26673 -42.56058 35096 ft 467 kts 42°
2026-04-25 17:37 -13.21777 -42.51680 35100 ft 466 kts 42°
2026-04-25 17:37 -13.16891 -42.47316 35099 ft 466 kts 42°
2026-04-25 17:38 -13.12828 -42.43693 35097 ft 465 kts 42°
2026-04-25 17:38 -13.07145 -42.38638 35076 ft 465 kts 42°
2026-04-25 17:39 -13.02263 -42.34276 35071 ft 465 kts 42°
2026-04-25 17:39 -12.97371 -42.29919 35065 ft 466 kts 42°
2026-04-25 17:40 -12.92506 -42.25594 35068 ft 466 kts 42°
2026-04-25 17:40 -12.87611 -42.21235 35058 ft 466 kts 42°
2026-04-25 17:41 -12.82710 -42.16868 35058 ft 467 kts 42°
2026-04-25 17:41 -12.77797 -42.12507 35057 ft 468 kts 42°
2026-04-25 17:42 -12.72906 -42.08174 35052 ft 468 kts 42°
2026-04-25 17:42 -12.67984 -42.03801 35052 ft 469 kts 42°
2026-04-25 17:43 -12.63053 -41.99417 35054 ft 470 kts 42°
2026-04-25 17:43 -12.58114 -41.95036 35056 ft 470 kts 42°
2026-04-25 17:44 -12.53206 -41.90692 35062 ft 470 kts 42°
2026-04-25 17:44 -12.48263 -41.86315 35064 ft 470 kts 42°
2026-04-25 17:45 -12.44959 -41.83387 35064 ft 470 kts 42°
2026-04-25 17:45 -12.38386 -41.77566 35070 ft 469 kts 42°
2026-04-25 17:46 -12.33478 -41.73231 35070 ft 469 kts 42°
2026-04-25 17:46 -12.28539 -41.68866 35075 ft 469 kts 42°
2026-04-25 17:47 -12.23606 -41.64505 35079 ft 468 kts 42°
2026-04-25 17:47 -12.18682 -41.60152 35073 ft 468 kts 42°
2026-04-25 17:48 -12.11341 -41.53665 35072 ft 467 kts 42°
2026-04-25 17:49 -12.06425 -41.49327 35066 ft 467 kts 42°
2026-04-25 17:49 -12.01516 -41.44996 35059 ft 466 kts 42°
2026-04-25 17:50 -11.96602 -41.40661 35059 ft 467 kts 42°
2026-04-25 17:50 -11.91718 -41.36365 35060 ft 467 kts 42°
2026-04-25 17:51 -11.86793 -41.32037 35062 ft 467 kts 42°
2026-04-25 17:51 -11.81879 -41.27706 35064 ft 467 kts 42°
2026-04-25 17:52 -11.76960 -41.23377 35068 ft 467 kts 42°
2026-04-25 17:52 -11.72072 -41.19087 35065 ft 467 kts 42°
2026-04-25 17:53 -11.67151 -41.14766 35067 ft 466 kts 42°
2026-04-25 17:53 -11.62233 -41.10446 35062 ft 467 kts 42°
2026-04-25 17:54 -11.57315 -41.06123 35064 ft 467 kts 42°
2026-04-25 17:54 -11.52399 -41.01801 35065 ft 467 kts 42°
2026-04-25 17:55 -11.47504 -40.97518 35067 ft 467 kts 42°
2026-04-25 17:55 -11.42578 -40.93207 35066 ft 466 kts 42°
2026-04-25 17:56 -11.37660 -40.88897 35068 ft 466 kts 42°
2026-04-25 17:56 -11.32737 -40.84596 35065 ft 466 kts 42°
2026-04-25 17:57 -11.27851 -40.80320 35064 ft 466 kts 42°
2026-04-25 17:57 -11.22933 -40.76012 35067 ft 466 kts 42°
2026-04-25 17:58 -11.18018 -40.71704 35063 ft 466 kts 42°
2026-04-25 17:58 -11.13096 -40.67400 35059 ft 467 kts 41°
2026-04-25 17:59 -11.08202 -40.63132 35068 ft 466 kts 41°
2026-04-25 17:59 -11.03284 -40.58842 35076 ft 465 kts 41°
2026-04-25 18:00 -10.98370 -40.54561 35069 ft 465 kts 41°
2026-04-25 18:00 -10.93466 -40.50279 35071 ft 465 kts 41°
2026-04-25 18:01 -10.88593 -40.46018 35067 ft 465 kts 41°
2026-04-25 18:01 -10.83679 -40.41739 35064 ft 465 kts 41°
2026-04-25 18:02 -10.78769 -40.37457 35069 ft 465 kts 41°
2026-04-25 18:02 -10.73871 -40.33184 35072 ft 464 kts 41°
2026-04-25 18:03 -10.69001 -40.28946 35071 ft 463 kts 41°
2026-04-25 18:03 -10.64102 -40.24690 35066 ft 463 kts 41°
2026-04-25 18:04 -10.59218 -40.20427 35068 ft 463 kts 41°
2026-04-25 18:04 -10.54326 -40.16163 35065 ft 463 kts 41°
2026-04-25 18:05 -10.49424 -40.11911 35070 ft 463 kts 41°
2026-04-25 18:05 -10.44557 -40.07689 35060 ft 463 kts 41°
2026-04-25 18:06 -10.39642 -40.03462 35065 ft 463 kts 40°
2026-04-25 18:06 -10.34613 -39.99379 35066 ft 463 kts 39°
2026-04-25 18:07 -10.29541 -39.95347 35068 ft 463 kts 39°
2026-04-25 18:07 -10.24524 -39.91320 35064 ft 463 kts 39°
2026-04-25 18:08 -10.19491 -39.87245 35061 ft 463 kts 39°
2026-04-25 18:08 -10.14452 -39.83161 35004 ft 464 kts 39°
2026-04-25 18:09 -10.09395 -39.79070 34980 ft 466 kts 39°
2026-04-25 18:09 -10.04341 -39.74996 34975 ft 468 kts 39°
2026-04-25 18:10 -9.99233 -39.70875 34973 ft 470 kts 39°
2026-04-25 18:10 -9.94102 -39.66729 34974 ft 473 kts 38°
2026-04-25 18:11 -9.88947 -39.62571 34979 ft 474 kts 38°
2026-04-25 18:11 -9.83778 -39.58401 34996 ft 475 kts 38°
2026-04-25 18:12 -9.78645 -39.54265 35014 ft 474 kts 38°
2026-04-25 18:12 -9.73491 -39.50120 35023 ft 472 kts 38°
2026-04-25 18:13 -9.68356 -39.45984 35029 ft 470 kts 38°
2026-04-25 18:13 -9.63242 -39.41864 35028 ft 469 kts 38°
2026-04-25 18:14 -9.55619 -39.35743 35022 ft 468 kts 38°
2026-04-25 18:14 -9.50526 -39.31652 35021 ft 467 kts 38°
2026-04-25 18:15 -9.45439 -39.27562 35017 ft 467 kts 38°
2026-04-25 18:15 -9.40348 -39.23471 35017 ft 467 kts 38°
2026-04-25 18:16 -9.35299 -39.19412 35016 ft 467 kts 38°
2026-04-25 18:17 -9.27670 -39.13299 35013 ft 466 kts 38°
2026-04-25 18:17 -9.22583 -39.09221 35011 ft 466 kts 38°
2026-04-25 18:18 -9.17540 -39.05174 35013 ft 466 kts 38°
2026-04-25 18:18 -9.12455 -39.01098 34999 ft 466 kts 38°
2026-04-25 18:19 -9.07362 -38.97025 34972 ft 467 kts 38°
2026-04-25 18:19 -9.02257 -38.92930 34957 ft 469 kts 38°
2026-04-25 18:20 -8.97168 -38.88851 34950 ft 471 kts 38°
2026-04-25 18:20 -8.92021 -38.84732 34950 ft 473 kts 38°
2026-04-25 18:21 -8.86858 -38.80602 34958 ft 474 kts 39°
2026-04-25 18:21 -8.81694 -38.76470 34972 ft 473 kts 39°
2026-04-25 18:22 -8.76530 -38.72345 35001 ft 472 kts 39°
2026-04-25 18:22 -8.71423 -38.68262 35001 ft 471 kts 39°
2026-04-25 18:23 -8.66296 -38.64165 35003 ft 469 kts 38°
2026-04-25 18:23 -8.61186 -38.60093 35002 ft 467 kts 38°
2026-04-25 18:24 -8.56095 -38.56019 35001 ft 466 kts 38°
2026-04-25 18:24 -8.51063 -38.51897 34986 ft 466 kts 39°
2026-04-25 18:25 -8.46090 -38.47769 34987 ft 465 kts 39°
2026-04-25 18:25 -8.41090 -38.43627 34984 ft 465 kts 39°
2026-04-25 18:26 -8.36069 -38.39499 34984 ft 465 kts 39°
2026-04-25 18:26 -8.31043 -38.35381 34983 ft 465 kts 39°
2026-04-25 18:27 -8.26053 -38.31294 34981 ft 465 kts 39°
2026-04-25 18:27 -8.21033 -38.27169 34980 ft 465 kts 39°
2026-04-25 18:28 -8.16013 -38.23041 34980 ft 465 kts 39°
2026-04-25 18:28 -8.10990 -38.18916 34982 ft 465 kts 39°
2026-04-25 18:29 -8.03488 -38.12766 34981 ft 465 kts 39°
2026-04-25 18:30 -7.93432 -38.04540 34980 ft 465 kts 39°
2026-04-25 18:30 -7.88408 -38.00423 34981 ft 465 kts 39°
2026-04-25 18:31 -7.83422 -37.96327 34981 ft 465 kts 39°
2026-04-25 18:31 -7.78405 -37.92216 34977 ft 466 kts 39°
2026-04-25 18:32 -7.73367 -37.88097 34977 ft 466 kts 39°
2026-04-25 18:32 -7.68330 -37.83993 34976 ft 466 kts 39°
2026-04-25 18:33 -7.63374 -37.79950 34974 ft 449 kts 39°
2026-04-25 18:33 -7.58597 -37.76029 34975 ft 444 kts 39°
2026-04-25 18:34 -7.53811 -37.72104 34974 ft 443 kts 39°
2026-04-25 18:34 -7.49020 -37.68191 34974 ft 443 kts 39°
2026-04-25 18:35 -7.44231 -37.64282 34975 ft 443 kts 39°
2026-04-25 18:35 -7.39474 -37.60397 34975 ft 443 kts 39°
2026-04-25 18:36 -7.34686 -37.56490 34976 ft 443 kts 39°
2026-04-25 18:36 -7.29897 -37.52583 34973 ft 443 kts 39°
2026-04-25 18:37 -7.25113 -37.48673 34978 ft 443 kts 39°
2026-04-25 18:37 -7.20325 -37.44768 34980 ft 442 kts 39°
2026-04-25 18:38 -7.15574 -37.40900 34998 ft 442 kts 39°
2026-04-25 18:38 -7.10816 -37.37017 35004 ft 439 kts 39°
2026-04-25 18:39 -7.06080 -37.33149 35004 ft 437 kts 39°
2026-04-25 18:39 -7.01358 -37.29294 34994 ft 436 kts 39°
2026-04-25 18:40 -6.97177 -37.24976 34980 ft 435 kts 56°
2026-04-25 18:40 -6.95609 -37.22349 34270 ft 442 kts 61°
2026-04-25 18:40 -6.94151 -37.19624 33688 ft 440 kts 62°
2026-04-25 18:41 -6.92732 -37.16918 33180 ft 436 kts 62°
2026-04-25 18:41 -6.91329 -37.14227 32652 ft 433 kts 62°
2026-04-25 18:41 -6.89936 -37.11555 32135 ft 429 kts 62°
2026-04-25 18:41 -6.88549 -37.08909 31625 ft 426 kts 62°
2026-04-25 18:42 -6.87165 -37.06289 31122 ft 422 kts 62°
2026-04-25 18:42 -6.86716 -37.05443 30962 ft 421 kts 62°
2026-04-25 18:42 -6.84442 -37.01151 30154 ft 415 kts 63°
2026-04-25 18:42 -6.83088 -36.98597 29689 ft 411 kts 63°
2026-04-25 18:43 -6.81750 -36.96071 29222 ft 407 kts 63°
2026-04-25 18:43 -6.80429 -36.93564 28767 ft 403 kts 63°
2026-04-25 18:43 -6.79123 -36.91086 28331 ft 399 kts 63°
2026-04-25 18:43 -6.77829 -36.88637 27892 ft 395 kts 63°
2026-04-25 18:44 -6.76542 -36.86214 27449 ft 391 kts 63°
2026-04-25 18:44 -6.75269 -36.83817 27004 ft 387 kts 63°
2026-04-25 18:44 -6.74007 -36.81438 26563 ft 383 kts 63°
2026-04-25 18:44 -6.72778 -36.79113 26118 ft 380 kts 63°
2026-04-25 18:45 -6.71543 -36.76780 25662 ft 377 kts 62°
2026-04-25 18:45 -6.70314 -36.74461 25205 ft 374 kts 62°
2026-04-25 18:45 -6.69095 -36.72160 24734 ft 372 kts 62°
2026-04-25 18:45 -6.67883 -36.69874 24262 ft 369 kts 62°
2026-04-25 18:46 -6.66679 -36.67605 23788 ft 367 kts 62°
2026-04-25 18:46 -6.65480 -36.65350 23323 ft 365 kts 62°
2026-04-25 18:46 -6.64289 -36.63103 22857 ft 363 kts 62°
2026-04-25 18:46 -6.63123 -36.60906 22411 ft 361 kts 62°
2026-04-25 18:47 -6.61937 -36.58684 21934 ft 359 kts 61°
2026-04-25 18:47 -6.60523 -36.56619 21465 ft 359 kts 53°
2026-04-25 18:47 -6.59017 -36.54625 21008 ft 357 kts 53°
2026-04-25 18:47 -6.57518 -36.52633 20558 ft 356 kts 54°
2026-04-25 18:48 -6.56028 -36.50651 20089 ft 355 kts 54°
2026-04-25 18:48 -6.54545 -36.48675 19638 ft 353 kts 54°
2026-04-25 18:48 -6.53068 -36.46709 19196 ft 352 kts 53°
2026-04-25 18:48 -6.51615 -36.44779 18755 ft 350 kts 53°
2026-04-25 18:49 -6.50150 -36.42831 18310 ft 349 kts 53°
2026-04-25 18:49 -6.48692 -36.40890 17876 ft 347 kts 53°
2026-04-25 18:49 -6.47240 -36.38954 17434 ft 346 kts 53°
2026-04-25 18:49 -6.45795 -36.37029 17005 ft 344 kts 53°
2026-04-25 18:50 -6.44353 -36.35109 16575 ft 343 kts 53°
2026-04-25 18:50 -6.42914 -36.33199 16152 ft 342 kts 53°
2026-04-25 18:50 -6.41480 -36.31298 15738 ft 341 kts 54°
2026-04-25 18:50 -6.40069 -36.29424 15335 ft 340 kts 54°
2026-04-25 18:51 -6.38646 -36.27531 14910 ft 339 kts 54°
2026-04-25 18:51 -6.38166 -36.26893 14767 ft 339 kts 54°
2026-04-25 18:51 -6.35806 -36.23756 14079 ft 338 kts 54°
2026-04-25 18:51 -6.34388 -36.21873 13664 ft 337 kts 54°
2026-04-25 18:52 -6.32978 -36.20000 13247 ft 336 kts 54°
2026-04-25 18:52 -6.31570 -36.18131 12876 ft 333 kts 54°
2026-04-25 18:52 -6.30171 -36.16275 12439 ft 333 kts 54°
2026-04-25 18:52 -6.28777 -36.14426 12007 ft 333 kts 54°
2026-04-25 18:53 -6.27406 -36.12606 11607 ft 331 kts 54°
2026-04-25 18:53 -6.26023 -36.10771 11215 ft 329 kts 54°
2026-04-25 18:53 -6.24642 -36.08939 10876 ft 326 kts 54°
2026-04-25 18:53 -6.23279 -36.07132 10477 ft 324 kts 54°
2026-04-25 18:54 -6.20564 -36.03532 9801 ft 317 kts 54°
2026-04-25 18:54 -6.19251 -36.01794 9616 ft 308 kts 54°
2026-04-25 18:54 -6.17963 -36.00088 9316 ft 305 kts 54°
2026-04-25 18:55 -6.16704 -35.98419 8953 ft 303 kts 54°
2026-04-25 18:55 -6.15431 -35.96734 8554 ft 302 kts 54°
2026-04-25 18:55 -6.14161 -35.95049 7970 ft 307 kts 54°
2026-04-25 18:55 -6.12850 -35.93303 7258 ft 317 kts 54°
2026-04-25 18:56 -6.11536 -35.91557 7032 ft 308 kts 55°
2026-04-25 18:56 -6.10271 -35.89883 6963 ft 293 kts 55°
2026-04-25 18:56 -6.09073 -35.88299 6970 ft 276 kts 55°
2026-04-25 18:56 -6.07959 -35.86829 6970 ft 260 kts 56°
2026-04-25 18:57 -6.06893 -35.85424 6973 ft 249 kts 56°
2026-04-25 18:57 -6.05850 -35.84044 6975 ft 247 kts 56°
2026-04-25 18:57 -6.04815 -35.82671 6974 ft 246 kts 56°
2026-04-25 18:57 -6.04467 -35.82208 6974 ft 246 kts 56°
2026-04-25 18:58 -6.02750 -35.79930 6974 ft 246 kts 56°
2026-04-25 18:58 -6.00688 -35.77198 6637 ft 244 kts 56°
2026-04-25 18:58 -5.99681 -35.75862 6336 ft 242 kts 56°
2026-04-25 18:59 -5.97657 -35.73182 5717 ft 239 kts 57°
2026-04-25 18:59 -5.95656 -35.70539 5127 ft 236 kts 57°
2026-04-25 19:00 -5.93632 -35.67958 4535 ft 234 kts 55°
2026-04-25 19:00 -5.92604 -35.66697 4213 ft 233 kts 55°
2026-04-25 19:01 -5.90576 -35.64215 3892 ft 231 kts 55°
2026-04-25 19:01 -5.89552 -35.62961 3891 ft 233 kts 54°
2026-04-25 19:01 -5.88524 -35.61700 3893 ft 233 kts 55°
2026-04-25 19:01 -5.87502 -35.60445 3891 ft 232 kts 55°
2026-04-25 19:02 -5.85461 -35.57927 3892 ft 232 kts 55°
2026-04-25 19:02 -5.84362 -35.56729 3826 ft 237 kts 41°
2026-04-25 19:02 -5.82905 -35.55955 3624 ft 240 kts 19°
2026-04-25 19:03 -5.80712 -35.55561 3365 ft 242 kts 11°
2026-04-25 19:03 -5.77980 -35.55127 3029 ft 236 kts 12°
2026-04-25 19:03 -5.76375 -35.54856 2824 ft 231 kts 17°
2026-04-25 19:04 -5.74439 -35.52792 2417 ft 204 kts 88°
2026-04-25 19:04 -5.74569 -35.51413 2219 ft 197 kts 102°
2026-04-25 19:05 -5.75010 -35.48752 1925 ft 190 kts 99°
2026-04-25 19:05 -5.75401 -35.46357 1849 ft 158 kts 99°
2026-04-25 19:05 -5.75573 -35.45306 1698 ft 148 kts 99°
2026-04-25 19:06 -5.75736 -35.44302 1534 ft 144 kts 99°
2026-04-25 19:06 -5.76045 -35.42408 1182 ft 135 kts 99°
2026-04-25 19:06 -5.76196 -35.41481 1002 ft 134 kts 99°
2026-04-25 19:07 -5.76496 -35.39641 651 ft 135 kts 99°
2026-04-25 19:07 -5.76647 -35.38708 472 ft 136 kts 99°
2026-04-25 19:08 -5.76937 -35.36930 277 ft 105 kts 99°
2026-04-25 19:08 -5.77025 -35.36376 274 ft 53 kts 99°
2026-04-25 19:09 -5.76926 -35.36024 274 ft 9 kts 338°
2026-04-25 19:09 -5.76911 -35.36038 274 ft 9 kts 307°
2026-04-25 19:09 -5.76883 -35.36168 274 ft 6 kts 280°
2026-04-25 19:10 -5.76876 -35.36210 274 ft 8 kts 279°
2026-04-25 19:10 -5.76863 -35.36291 274 ft 14 kts 279°
2026-04-25 19:10 -5.76848 -35.36383 274 ft 13 kts 279°
2026-04-25 19:10 -5.76835 -35.36464 274 ft 11 kts 279°
2026-04-25 19:11 -5.76823 -35.36537 274 ft 10 kts 281°
2026-04-25 19:11 -5.76812 -35.36600 274 ft 9 kts 279°
2026-04-25 19:11 -5.76803 -35.36656 274 ft 8 kts 278°
2026-04-25 19:11 -5.76795 -35.36709 274 ft 10 kts 278°
2026-04-25 19:12 -5.76782 -35.36786 278 ft 11 kts 282°
2026-04-25 19:12 -5.76747 -35.36844 274 ft 9 kts 335°
2026-04-25 19:12 -5.76706 -35.36844 274 ft 9 kts
2026-04-25 19:12 -5.76652 -35.36836 274 ft 7 kts
2026-04-25 19:13 -5.76607 -35.36840 274 ft 6 kts 332°
2026-04-25 19:13 -5.76586 -35.36871 274 ft 6 kts 291°
2026-04-25 19:13 -5.76577 -35.36919 274 ft 9 kts 277°
2026-04-25 19:13 -5.76561 -35.37015 274 ft 12 kts 282°
2026-04-25 19:14 -5.76506 -35.37038 274 ft 4 kts 14°
2026-04-25 19:14 -5.76496 -35.37035 278 ft 5 kts 17°
2026-04-25 19:14 -5.76473 -35.37032 274 ft 1 kts
2026-04-25 19:14 -5.76469 -35.37031 274 ft 0 kts